OBJECT B, 62726

Orbit data source: Space-Track

You're viewing an Uncataloged Satellite

Recently launched and/or uncataloged satellites may have evolving metadata. Metadata may include but not limited to: Owner, Maufacturer, Bus, Motor, and Mission.

OBJECT B, 62726 is a Chinese satellite in SSO that was launched on Fri, 17 Jan 2025 UTC via a CHANG ZHENG 2D launch vehicle from the Jiuquan Satellite Launch Center, China (JSC). Unknown objects in Earth's orbit typically refer to objects detected orbiting the Earth but have not yet been identified or cataloged. These objects could be anything from previously untracked satellites, spent rocket stages, debris from satellite collisions, or even natural meteoroids temporarily captured by Earth's gravity.

Loading next visibility...
OBJECT B details
Identifier
62726, 2025-012B
Orbit
SSO
Last TLE update9 hours ago
Origin
Flag of CNJHQJ/YINHE (CN / PRC)
ManufacturerYinhe
MissionOperational spacecraft
Bus & MotorTIANLU, Unknown motor
Mass~100 kg wet, ~100 kg dry
Launch date (UTC)
2025-01-17 (1 month ago)
Launch vehicle
CHANG ZHENG 2D
Launch site
Jiuquan Satellite Launch Center, China (JSC)
Object typeUnknown
Shape & HBRUnknown
Radar Cross SectionLarge (>1 m²)

Expand to show TLE details & history

TLE from 9 hours ago
0 OBJECT B
1 62726U 25012B   25047.14177824  .00009958  00000-0  53663-3 0  9992
2 62726  97.4748 122.5940 0010527 164.2804 195.8757 15.14947211  4503
Epoch: 2025-02-16T03:24Z
Definitive object data (Epoch: 2025-02-16T03:24:09.639Z)
Latitude-0.00006°
Longitude-74.82525°
Altitude531.208 km
Speed7.593 km/s
True Right ascension08h 10m 22s
True Declination0° 00' 00"
Sunlit
Object was in full shadow at TLE epoch
Visualization TLE readout
Latitude-61.65586°
Longitude-60.44863°
Altitude549.953 km
Speed7.583 km/s
Apparent Right ascension05h 35m 13s
Apparent Declination-58° 57' 59"
Sunlit
Object is in daylight
Visualization observer readout
Local Sidereal Time15:24:51
Azimuth216.268° SW
Elevation-62.002°
Doppler factor1
Orbital elements
Apogee altitude525.374 km
Perigee altitude510.855 km
Semi-major axis6,896.251 km
Eccentricity0.0010527
Inclination97.4748°
RAAN122.594°
Arg. of periapsis164.2804°
True anomaly195.84274°
Mean anomaly195.8757°
Eccentric anomaly195.85922°
Mean motion3.78986 °/min
BSTAR0.00053663
Orbital period94.99 mins
Loading maneuver chart data...
Loading historical data...
Loading historical data...
Loading historical data...
Loading historical data...
Loading historical data...
Loading historical data...
Loading historical data...
Other satellites on launch #12 in the year 2025 (2025-01-17 UTC)

OBJECT B Visibility forecast

Observer location: undefined°, undefined

Span
Click to sort rows by Start time (UTC) header in descending order
Start Az.
Max El. time (UTC)
Max El. Az.
Max El.
End time (UTC)
End Az.
5 mins2025-02-16 18:14:17.859Z348.65° N2025-02-16 18:16:17.859Z304.683° NW31.661°2025-02-16 18:19:17.859Z223.318° SW
6 mins2025-02-17 04:54:17.859Z162.261° S2025-02-17 04:56:17.859Z139.9° SSE43.436°2025-02-17 05:00:17.859Z350.169° N
|